{"data":{"norad_id":65567,"epoch":"2026-05-25T03:17:50.186688Z","epoch_age_seconds":53256,"freshness":"FRESH","line1":"1 65567U 25203C   26145.13738642  .00000114  00000+0  93669-4 0  9995","line2":"2 65567  81.3070  32.3973 0004560 265.1865  94.8771 13.83043508 35497","mean_motion":13.83043508,"eccentricity":0.000456,"inclination_deg":81.307,"raan_deg":32.3973,"arg_perigee_deg":265.1865,"mean_anomaly_deg":94.8771,"bstar":9.3669e-5,"rev_number":3549,"period_min":104.11819958451,"perigee_km":949.7685480312,"apogee_km":956.45464675202,"semimajor_km":7331.2485973916,"source":"CELESTRAK","updated_at":"2026-05-25T13:38:25.166948Z"}}